シューメーカー-レヴィ第6彗星

181P/Shoemaker-Levy 6 (2022)

English version
Home page
Updated on January 28, 2022

---------------------------------------------------------------------

・ プロフィール

・ 写真集

・ 軌道要素

Epoch 2022 Jan. 21.0 TT = JDT 2459600.5
T 2022 Jan. 8.75021 TT                                  MPC
q   1.1598373            (2000.0)            P               Q
n   0.12926219     Peri.  336.23216     +0.96866077     -0.17718671
a   3.8739592      Node    35.40345     +0.24714204     +0.75761819
e   0.7006067      Incl.   17.48594     -0.02484209     +0.62818751
P   7.62
From 67 observations 1991 Nov. 27-2014 June 15, mean residual 0".8.
     Nongravitational parameters A1 = -0.38, A2 = -0.0084.

・ 星図

・ 光度変化

        m1 = 13 + 5 logΔ + 40 log r

---------------------------------------------------------------------

軌道要素はM.P.E.C. 2014-N57に掲載されたものです。
星図はステラナビゲータ Ver.10 (アストロアーツ) で作成したものです。
光度グラフはComet for Windowsで作成したものです。

---------------------------------------------------------------------

Copyright(C) Seiichi Yoshida (comet@aerith.net). All rights reserved.